EZY63ZQ EGCC-EHAM

Flight info

Callsign EZY63ZQ
Flight time 0h 47m
Altitude 31000
Route DESIG L603 LAMSO
Aircraft A320/M-SDE3FGHIRWY/LB1

Departure

Time 2026-05-06 16:00
Airport Manchester Airport (EGCC)

Arrival

Time 2026-05-06 16:48
Airport Amsterdam Airport Schiphol (EHAM)
Time Latitude Longitude Altitude Speed Heading
2026-05-06 15:11 53.36553 -2.28366 255 ft 0 kts 315°
2026-05-06 15:42 53.36552 -2.28365 255 ft 1 kts 315°
2026-05-06 15:42 53.36537 -2.28339 255 ft 3 kts 315°
2026-05-06 15:42 53.36524 -2.28317 255 ft 3 kts 304°
2026-05-06 15:42 53.36518 -2.28303 255 ft 3 kts 264°
2026-05-06 15:43 53.36525 -2.28279 255 ft 3 kts 224°
2026-05-06 15:43 53.36534 -2.28265 255 ft 2 kts 224°
2026-05-06 15:43 53.36545 -2.28248 255 ft 1 kts 224°
2026-05-06 15:43 53.36546 -2.28244 255 ft 0 kts 224°
2026-05-06 15:51 53.36543 -2.28251 255 ft 5 kts 225°
2026-05-06 15:52 53.36515 -2.28297 255 ft 5 kts 225°
2026-05-06 15:52 53.36488 -2.28343 255 ft 6 kts 223°
2026-05-06 15:52 53.36453 -2.28363 255 ft 5 kts 199°
2026-05-06 15:52 53.36424 -2.28397 255 ft 5 kts 225°
2026-05-06 15:53 53.36403 -2.28437 255 ft 5 kts 227°
2026-05-06 15:53 53.36348 -2.28464 255 ft 9 kts 160°
2026-05-06 15:53 53.36305 -2.28406 255 ft 7 kts 135°
2026-05-06 15:53 53.36272 -2.28350 255 ft 6 kts 135°
2026-05-06 15:54 53.36246 -2.28305 255 ft 5 kts 135°
2026-05-06 15:54 53.36199 -2.28227 255 ft 16 kts 135°
2026-05-06 15:54 53.36101 -2.28063 255 ft 18 kts 137°
2026-05-06 15:54 53.36019 -2.27943 255 ft 15 kts 139°
2026-05-06 15:55 53.35929 -2.27852 255 ft 16 kts 170°
2026-05-06 15:55 53.35818 -2.27864 251 ft 17 kts 186°
2026-05-06 15:55 53.35696 -2.27883 244 ft 17 kts 186°
2026-05-06 15:55 53.35609 -2.27931 240 ft 14 kts 225°
2026-05-06 15:56 53.35543 -2.28068 238 ft 16 kts 225°
2026-05-06 15:56 53.35446 -2.28149 236 ft 14 kts 198°
2026-05-06 15:56 53.35359 -2.28177 236 ft 13 kts 191°
2026-05-06 15:56 53.35274 -2.28237 233 ft 14 kts 212°
2026-05-06 15:57 53.35216 -2.28332 232 ft 7 kts 224°
2026-05-06 15:57 53.35178 -2.28408 229 ft 10 kts 230°
2026-05-06 15:57 53.35129 -2.28506 227 ft 11 kts 232°
2026-05-06 15:57 53.35087 -2.28597 229 ft 13 kts 232°
2026-05-06 15:58 53.35027 -2.28724 227 ft 14 kts 231°
2026-05-06 15:58 53.34960 -2.28842 226 ft 14 kts 225°
2026-05-06 15:58 53.34892 -2.28957 222 ft 15 kts 226°
2026-05-06 15:58 53.34808 -2.29063 223 ft 12 kts 200°
2026-05-06 15:59 53.34740 -2.29068 218 ft 9 kts 165°
2026-05-06 15:59 53.34687 -2.29018 222 ft 8 kts 138°
2026-05-06 15:59 53.34677 -2.28953 219 ft 3 kts 75°
2026-05-06 15:59 53.34694 -2.28903 220 ft 15 kts 54°
2026-05-06 16:00 53.34874 -2.28529 230 ft 75 kts 51°
2026-05-06 16:00 53.35336 -2.27572 243 ft 132 kts 51°
2026-05-06 16:00 53.35979 -2.26227 489 ft 155 kts 52°
2026-05-06 16:00 53.36638 -2.24843 1299 ft 151 kts 53°
2026-05-06 16:01 53.37315 -2.23418 1837 ft 165 kts 53°
2026-05-06 16:01 53.38075 -2.21810 2230 ft 188 kts 52°
2026-05-06 16:01 53.38935 -2.19992 2589 ft 208 kts 52°
2026-05-06 16:01 53.39888 -2.17977 2996 ft 233 kts 52°
2026-05-06 16:02 53.40938 -2.15754 3583 ft 250 kts 52°
2026-05-06 16:02 53.42031 -2.13436 4453 ft 257 kts 52°
2026-05-06 16:02 53.43148 -2.11062 4876 ft 260 kts 52°
2026-05-06 16:02 53.44273 -2.08671 5026 ft 261 kts 52°
2026-05-06 16:03 53.45404 -2.06264 5810 ft 263 kts 52°
2026-05-06 16:03 53.46539 -2.03845 6799 ft 264 kts 51°
2026-05-06 16:03 53.47688 -2.01393 7604 ft 270 kts 51°
2026-05-06 16:03 53.48856 -1.98900 8410 ft 275 kts 51°
2026-05-06 16:04 53.50043 -1.96391 9213 ft 280 kts 49°
2026-05-06 16:04 53.51219 -1.93732 9988 ft 288 kts 58°
2026-05-06 16:04 53.51970 -1.90581 10703 ft 296 kts 75°
2026-05-06 16:04 53.52154 -1.86975 11010 ft 321 kts 95°
2026-05-06 16:05 53.51683 -1.83167 11366 ft 340 kts 106°
2026-05-06 16:05 53.50903 -1.79408 12007 ft 347 kts 109°
2026-05-06 16:05 53.50153 -1.75522 12718 ft 352 kts 106°
2026-05-06 16:05 53.49470 -1.71554 13444 ft 356 kts 105°
2026-05-06 16:06 53.48806 -1.67523 14112 ft 361 kts 104°
2026-05-06 16:06 53.48130 -1.63429 14751 ft 365 kts 105°
2026-05-06 16:06 53.47437 -1.59318 15368 ft 369 kts 105°
2026-05-06 16:06 53.46718 -1.55162 16001 ft 372 kts 106°
2026-05-06 16:07 53.45975 -1.50963 16642 ft 376 kts 106°
2026-05-06 16:07 53.45213 -1.46726 17259 ft 380 kts 107°
2026-05-06 16:07 53.44443 -1.42475 17873 ft 384 kts 107°
2026-05-06 16:07 53.43659 -1.38172 18469 ft 387 kts 107°
2026-05-06 16:08 53.42874 -1.33876 18993 ft 390 kts 107°
2026-05-06 16:08 53.42078 -1.29501 19531 ft 393 kts 107°
2026-05-06 16:08 53.41279 -1.25099 20063 ft 396 kts 107°
2026-05-06 16:08 53.40473 -1.20655 20583 ft 400 kts 107°
2026-05-06 16:09 53.39663 -1.16189 21090 ft 403 kts 107°
2026-05-06 16:09 53.38844 -1.11682 21588 ft 406 kts 107°
2026-05-06 16:09 53.38015 -1.07141 22073 ft 409 kts 107°
2026-05-06 16:09 53.37177 -1.02581 22582 ft 412 kts 108°
2026-05-06 16:10 53.36330 -0.97988 23057 ft 415 kts 108°
2026-05-06 16:10 53.35472 -0.93351 23527 ft 418 kts 108°
2026-05-06 16:10 53.34605 -0.88676 23941 ft 421 kts 108°
2026-05-06 16:10 53.33737 -0.83987 24345 ft 423 kts 108°
2026-05-06 16:11 53.32860 -0.79266 24744 ft 426 kts 108°
2026-05-06 16:11 53.31975 -0.74530 25131 ft 428 kts 108°
2026-05-06 16:11 53.31079 -0.69749 25521 ft 431 kts 108°
2026-05-06 16:11 53.30181 -0.64955 25901 ft 433 kts 108°
2026-05-06 16:12 53.29278 -0.60131 26267 ft 436 kts 109°
2026-05-06 16:12 53.28372 -0.55296 26634 ft 438 kts 109°
2026-05-06 16:12 53.27453 -0.50425 26993 ft 440 kts 109°
2026-05-06 16:12 53.26527 -0.45536 27348 ft 443 kts 109°
2026-05-06 16:13 53.25592 -0.40616 27705 ft 445 kts 109°
2026-05-06 16:13 53.24649 -0.35676 28039 ft 447 kts 109°
2026-05-06 16:13 53.23714 -0.30777 28403 ft 449 kts 109°
2026-05-06 16:13 53.22763 -0.25802 28749 ft 452 kts 109°
2026-05-06 16:14 53.21802 -0.20793 29073 ft 454 kts 109°
2026-05-06 16:14 53.20839 -0.15773 29420 ft 456 kts 109°
2026-05-06 16:14 53.19865 -0.10710 29740 ft 458 kts 110°
2026-05-06 16:14 53.18887 -0.05649 30057 ft 461 kts 110°
2026-05-06 16:15 53.17899 -0.00548 30336 ft 463 kts 110°
2026-05-06 16:15 53.16907 0.04563 30546 ft 465 kts 110°
2026-05-06 16:15 53.15906 0.09716 30793 ft 467 kts 110°
2026-05-06 16:15 53.14906 0.14850 30987 ft 468 kts 110°
2026-05-06 16:16 53.13906 0.19975 31038 ft 457 kts 110°
2026-05-06 16:16 53.12939 0.24931 31029 ft 446 kts 110°
2026-05-06 16:16 53.11022 0.34663 31029 ft 441 kts 110°
2026-05-06 16:17 53.09104 0.44298 31018 ft 440 kts 110°
2026-05-06 16:17 53.07190 0.53913 31016 ft 439 kts 110°
2026-05-06 16:18 53.05255 0.63592 31010 ft 438 kts 111°
2026-05-06 16:18 53.03322 0.73200 31007 ft 438 kts 111°
2026-05-06 16:19 53.01384 0.82779 30994 ft 438 kts 111°
2026-05-06 16:19 52.99431 0.92357 30982 ft 437 kts 111°
2026-05-06 16:20 52.97637 1.02001 30977 ft 438 kts 102°
2026-05-06 16:20 52.96514 1.11888 31001 ft 438 kts 102°
2026-05-06 16:21 52.95356 1.21864 30996 ft 437 kts 102°
2026-05-06 16:21 52.94203 1.31684 30998 ft 437 kts 102°
2026-05-06 16:22 52.93044 1.41567 30984 ft 436 kts 102°
2026-05-06 16:22 52.91874 1.51455 30991 ft 436 kts 102°
2026-05-06 16:23 52.90707 1.61284 30985 ft 435 kts 102°
2026-05-06 16:23 52.89529 1.71110 30991 ft 435 kts 102°
2026-05-06 16:24 52.88340 1.80920 30990 ft 434 kts 102°
2026-05-06 16:24 52.87145 1.90707 30822 ft 430 kts 103°
2026-05-06 16:25 52.86557 1.95507 30575 ft 424 kts 103°
2026-05-06 16:25 52.85968 2.00290 30325 ft 421 kts 103°
2026-05-06 16:25 52.85383 2.05012 30065 ft 418 kts 103°
2026-05-06 16:25 52.84800 2.09716 29781 ft 415 kts 103°
2026-05-06 16:26 52.84219 2.14396 29489 ft 414 kts 103°
2026-05-06 16:26 52.83639 2.19049 29202 ft 412 kts 103°
2026-05-06 16:26 52.83067 2.23613 28921 ft 409 kts 103°
2026-05-06 16:26 52.82485 2.28245 28481 ft 404 kts 103°
2026-05-06 16:27 52.81920 2.32712 28031 ft 400 kts 103°
2026-05-06 16:27 52.81354 2.37186 27584 ft 396 kts 103°
2026-05-06 16:27 52.80790 2.41616 27144 ft 392 kts 103°
2026-05-06 16:27 52.80239 2.45948 26718 ft 388 kts 103°
2026-05-06 16:28 52.79686 2.50289 26307 ft 384 kts 103°
2026-05-06 16:28 52.79137 2.54581 25893 ft 380 kts 104°
2026-05-06 16:28 52.78590 2.58842 25476 ft 377 kts 104°
2026-05-06 16:28 52.78054 2.63016 25347 ft 365 kts 104°
2026-05-06 16:29 52.77530 2.67074 25270 ft 360 kts 104°
2026-05-06 16:29 52.77181 2.69755 25219 ft 361 kts 104°
2026-05-06 16:29 52.76650 2.73818 25143 ft 362 kts 104°
2026-05-06 16:29 52.76118 2.77883 25063 ft 362 kts 104°
2026-05-06 16:30 52.75586 2.81947 24829 ft 362 kts 104°
2026-05-06 16:30 52.75236 2.84624 24558 ft 361 kts 104°
2026-05-06 16:30 52.74525 2.90049 23992 ft 359 kts 104°
2026-05-06 16:30 52.73998 2.94068 23560 ft 359 kts 104°
2026-05-06 16:31 52.73404 2.98073 23080 ft 357 kts 110°
2026-05-06 16:31 52.72437 3.01854 22910 ft 367 kts 121°
2026-05-06 16:31 52.71152 3.05526 22963 ft 372 kts 123°
2026-05-06 16:31 52.69848 3.09228 22964 ft 374 kts 123°
2026-05-06 16:32 52.68550 3.12929 22949 ft 374 kts 122°
2026-05-06 16:32 52.67246 3.16647 21980 ft 377 kts 122°
2026-05-06 16:32 52.65920 3.20423 20826 ft 382 kts 122°
2026-05-06 16:32 52.64591 3.24203 19946 ft 380 kts 123°
2026-05-06 16:33 52.63290 3.27906 19433 ft 367 kts 122°
2026-05-06 16:33 52.62026 3.31494 18947 ft 357 kts 123°
2026-05-06 16:33 52.60788 3.34999 18462 ft 351 kts 122°
2026-05-06 16:34 52.58576 3.42099 17396 ft 348 kts 110°
2026-05-06 16:34 52.58026 3.45978 16871 ft 349 kts 100°
2026-05-06 16:34 52.57628 3.49834 16354 ft 346 kts 100°
2026-05-06 16:34 52.57223 3.53689 15839 ft 341 kts 101°
2026-05-06 16:35 52.56813 3.57532 15336 ft 341 kts 101°
2026-05-06 16:35 52.56400 3.61378 14837 ft 339 kts 101°
2026-05-06 16:35 52.55990 3.65184 14345 ft 337 kts 100°
2026-05-06 16:35 52.55579 3.68980 13859 ft 335 kts 100°
2026-05-06 16:36 52.55172 3.72720 13341 ft 333 kts 100°
2026-05-06 16:36 52.54766 3.76461 12799 ft 330 kts 100°
2026-05-06 16:36 52.54365 3.80166 12270 ft 327 kts 99°
2026-05-06 16:36 52.53968 3.83827 11755 ft 324 kts 99°
2026-05-06 16:37 52.53570 3.87461 11249 ft 321 kts 99°
2026-05-06 16:37 52.53182 3.90987 10750 ft 314 kts 99°
2026-05-06 16:37 52.52799 3.94460 10259 ft 306 kts 99°
2026-05-06 16:37 52.52270 3.97860 9911 ft 300 kts 109°
2026-05-06 16:38 52.51510 4.00995 9636 ft 293 kts 110°
2026-05-06 16:38 52.50765 4.04056 9342 ft 290 kts 111°
2026-05-06 16:38 52.50009 4.07157 9043 ft 287 kts 110°
2026-05-06 16:38 52.49214 4.10088 8754 ft 285 kts 122°
2026-05-06 16:39 52.47824 4.12389 8462 ft 286 kts 143°
2026-05-06 16:39 52.46143 4.14142 8179 ft 285 kts 147°
2026-05-06 16:39 52.44448 4.15818 7888 ft 285 kts 147°
2026-05-06 16:39 52.42741 4.17469 7563 ft 285 kts 147°
2026-05-06 16:40 52.41035 4.19099 7235 ft 283 kts 147°
2026-05-06 16:40 52.39335 4.20710 6903 ft 281 kts 147°
2026-05-06 16:40 52.37641 4.22296 6571 ft 280 kts 147°
2026-05-06 16:40 52.35951 4.23861 6259 ft 278 kts 147°
2026-05-06 16:41 52.34266 4.25406 5909 ft 276 kts 147°
2026-05-06 16:41 52.32595 4.26919 5567 ft 274 kts 147°
2026-05-06 16:41 52.30990 4.28544 5237 ft 269 kts 137°
2026-05-06 16:41 52.29624 4.30534 4917 ft 265 kts 131°
2026-05-06 16:42 52.28276 4.32650 4562 ft 263 kts 134°
2026-05-06 16:42 52.26972 4.34689 4222 ft 262 kts 132°
2026-05-06 16:42 52.25652 4.36742 3946 ft 261 kts 133°
2026-05-06 16:42 52.24360 4.38795 3835 ft 262 kts 132°
2026-05-06 16:43 52.23187 4.41031 3452 ft 256 kts 117°
2026-05-06 16:43 52.22411 4.43589 3065 ft 251 kts 106°
2026-05-06 16:43 52.21984 4.46320 2675 ft 246 kts 98°
2026-05-06 16:43 52.21640 4.49027 2287 ft 245 kts 98°
2026-05-06 16:44 52.21354 4.51743 2014 ft 237 kts 88°
2026-05-06 16:44 52.21558 4.54274 1995 ft 217 kts 68°
2026-05-06 16:44 52.22212 4.56374 1997 ft 198 kts 56°
2026-05-06 16:44 52.22920 4.58203 2000 ft 184 kts 56°
2026-05-06 16:45 52.23587 4.59925 1943 ft 175 kts 57°
2026-05-06 16:45 52.24223 4.61571 1766 ft 167 kts 56°
2026-05-06 16:45 52.24822 4.63120 1546 ft 154 kts 56°
2026-05-06 16:45 52.25365 4.64528 1344 ft 144 kts 56°
2026-05-06 16:46 52.25891 4.65889 1143 ft 141 kts 55°
2026-05-06 16:46 52.26415 4.67252 966 ft 139 kts 55°
2026-05-06 16:46 52.26923 4.68578 769 ft 140 kts 55°
2026-05-06 16:46 52.27436 4.69921 590 ft 139 kts 56°
2026-05-06 16:47 52.27957 4.71253 398 ft 141 kts 54°
2026-05-06 16:47 52.28483 4.72600 212 ft 144 kts 58°
2026-05-06 16:47 52.29000 4.73953 40 ft 138 kts 58°
2026-05-06 16:47 52.29474 4.75188 -5 ft 107 kts 58°
2026-05-06 16:48 52.29770 4.75959 -5 ft 55 kts 58°
2026-05-06 16:48 52.29912 4.76325 -7 ft 32 kts 57°
2026-05-06 16:48 52.30031 4.76532 -3 ft 21 kts 34°
2026-05-06 16:48 52.30144 4.76638 -2 ft 16 kts 29°
2026-05-06 16:49 52.30239 4.76724 -3 ft 16 kts 28°
2026-05-06 16:49 52.30323 4.76853 -3 ft 18 kts 58°
2026-05-06 16:49 52.30390 4.77028 -3 ft 19 kts 58°
2026-05-06 16:49 52.30460 4.77210 -3 ft 19 kts 57°
2026-05-06 16:50 52.30533 4.77400 -3 ft 20 kts 58°
2026-05-06 16:50 52.30616 4.77558 -2 ft 18 kts 30°
2026-05-06 16:50 52.30740 4.77594 -2 ft 19 kts
2026-05-06 16:50 52.30880 4.77612 -2 ft 21 kts
2026-05-06 16:51 52.31029 4.77622 -2 ft 22 kts
2026-05-06 16:51 52.31185 4.77636 -2 ft 23 kts
2026-05-06 16:51 52.31344 4.77653 -2 ft 22 kts
2026-05-06 16:51 52.31476 4.77613 -2 ft 20 kts 326°
2026-05-06 16:52 52.31569 4.77436 -2 ft 21 kts 290°
2026-05-06 16:52 52.31574 4.77209 -3 ft 19 kts 270°
2026-05-06 16:52 52.31567 4.76994 -3 ft 21 kts 266°
2026-05-06 16:52 52.31556 4.76734 -3 ft 21 kts 265°
2026-05-06 16:53 52.31551 4.76505 -2 ft 21 kts 268°
2026-05-06 16:53 52.31543 4.76230 -2 ft 28 kts 268°
2026-05-06 16:53 52.31531 4.75918 -2 ft 28 kts 268°
2026-05-06 16:53 52.31517 4.75654 -3 ft 19 kts 267°
2026-05-06 16:54 52.31508 4.75492 -3 ft 9 kts 236°
2026-05-06 16:54 52.31453 4.75469 -3 ft 8 kts 177°
2026-05-06 16:54 52.31396 4.75475 -2 ft 10 kts 177°
2026-05-06 16:54 52.31325 4.75479 -2 ft 10 kts 178°
2026-05-06 16:55 52.31261 4.75482 -2 ft 9 kts 177°
2026-05-06 16:55 52.31201 4.75490 -2 ft 8 kts 175°
2026-05-06 16:55 52.31145 4.75495 -2 ft 8 kts 179°
2026-05-06 16:55 52.31099 4.75475 -2 ft 6 kts 189°
2026-05-06 16:56 52.31065 4.75497 -2 ft 5 kts 147°
2026-05-06 16:56 52.31046 4.75517 -2 ft 2 kts 148°
2026-05-06 16:56 52.31045 4.75518 -2 ft 0 kts 148°
2026-05-06 17:05 52.31044 4.75518 -2 ft 0 kts 148°